Regional Weather Roundup
Issued by NWS

Home | Current Version | Previous Version | Text Only | Print | Product List | Glossary Off
Versions: 1 2 3 4 5 6 7 8 9 10 11 12 13 14 15 16 17 18 19 20 21 22 23 24 25 26 27 28 29 30 31 32 33 34 35 36 37 38 39 40 41 42 43 44 45 46 47 48 49 50

000
ASUS43 KMKX 130021
RWRWI

WISCONSIN REGIONAL WEATHER ROUNDUP
NATIONAL WEATHER SERVICE MILWAUKEE/SULLIVAN WI
600 PM CST FRI FEB 12 2016

NOTE: "FAIR" INDICATES FEW OR NO CLOUDS BELOW 12,000 FEET WITH NO
SIGNIFICANT WEATHER AND/OR OBSTRUCTIONS TO VISIBILITY.

WIZ001-002-006>008-014>016-023>028-130100-
NORTHWEST WISCONSIN

CITY           SKY/WX    TMP DP  RH WIND       PRES   REMARKS
SUPERIOR ARPT  CLEAR      2 -15  44 NW10      30.52R WCI -13
6HR MIN TEMP:   2; 6HR MAX TEMP:   5;

ASHLAND        PTCLDY     1 -11  57 W9        30.45R WCI -14
6HR MIN TEMP:   1; 6HR MAX TEMP:   4;

HAYWARD        CLEAR      1 -17  42 VRB5      30.43R WCI  -9
6HR MIN TEMP:   1; 6HR MAX TEMP:   4; 6HR PCP: TRACE;

SIREN          PTCLDY     3 -17  40 NW7       30.50R WCI -10
6HR MIN TEMP:   3; 6HR MAX TEMP:   7;

CUMBERLAND     CLEAR      1 -17  42 NW9G16    30.44R WCI -14
RICE LAKE      CLEAR      3 -16  41 NW7       30.47R WCI -10
6HR MIN TEMP:   3; 6HR MAX TEMP:   8;

CHETEK         CLEAR      2 -14  46 N3        30.46R
6HR MIN TEMP:   2; 6HR MAX TEMP:   8;

LADYSMITH      CLEAR      1 -15  45 NW10      30.43R WCI -14
6HR MIN TEMP:   2; 6HR MAX TEMP:   7;

EAU CLAIRE     CLEAR      4 -15  41 NW9       30.46R WCI -10
6HR MIN TEMP:   4; 6HR MAX TEMP:  10;

MENOMONIE      PTCLDY     6 -15  38 NW13      30.48R WCI -11
6HR MIN TEMP:   6; 6HR MAX TEMP:  13;

NEW RICHMOND   PTCLDY     4 -12  47 NW10G18   30.50R WCI -12
6HR MIN TEMP:   4; 6HR MAX TEMP:   8;

OSCEOLA        PTCLDY     5 -13  41 NW12G17   30.55R WCI -11
6HR MIN TEMP:   5; 6HR MAX TEMP:   9;

$$

WIZ003>005-009-010-017-018-130100-
NORTH CENTRAL WISCONSIN

CITY           SKY/WX    TMP DP  RH WIND       PRES   REMARKS
MANITOWISH WTR CLOUDY    -3  -9  75 NW10G17   30.30R HAZE    WCI -21
6HR MIN TEMP:  -3; 6HR MAX TEMP:   1;

ARBOR VITAE    CLEAR     -1 -11  63 NW12      30.30R WCI -19
6HR MIN TEMP:  -1; 6HR MAX TEMP:   4;

WOODRUFF       CLEAR     -1 -11  63 NW12      30.30R WCI -19
6HR MIN TEMP:  -1; 6HR MAX TEMP:   4;

RHINELANDER    CLEAR     -2 -15  54 NW9G20    30.29R WCI -18
6HR MIN TEMP:  -2; 6HR MAX TEMP:   4; 6HR PCP: TRACE;

EAGLE RIVER    PTCLDY    -2 -10  69 NW14      30.26R HAZE    WCI -21
LAND O LAKES   CLOUDY    -1  -7  76 NW9       30.26R HAZE    WCI -16
6HR MIN TEMP:  -1; 6HR MAX TEMP:   4;

PHILLIPS       CLEAR     -2 -14  55 NW6       30.35R WCI -14
6HR MIN TEMP:  -2; 6HR MAX TEMP:   4;

TOMAHAWK       CLEAR     -2 -13  60 NW8       30.33R WCI -17
6HR MIN TEMP:  -2; 6HR MAX TEMP:   7;

MEDFORD        CLEAR      0 -13  54 NW10G16   30.33R WCI -16
6HR MIN TEMP:   0; 6HR MAX TEMP:   7;

MERRILL        CLEAR    N/A N/A N/A N12G21    30.35R
$$

WIZ029-030-035-036-043>047-130100-
CENTRAL WISCONSIN

CITY           SKY/WX    TMP DP  RH WIND       PRES   REMARKS
WAUSAU         CLEAR      3 -12  49 N9        30.34R WCI -12
6HR MIN TEMP:   3; 6HR MAX TEMP:  10;

MOSINEE        CLEAR      1 -11  55 NW17      30.34R WCI -19
MARSHFIELD     CLEAR      3 -14  45 NW15G22   30.35R WCI -16
6HR MIN TEMP:   3; 6HR MAX TEMP:   9;

STEVENS POINT  CLEAR      3 -14  45 NW10G16   30.35R WCI -13
6HR MIN TEMP:   3; 6HR MAX TEMP:  10;

WAUPACA        CLEAR      8 -12  39 NW17      30.35R WCI -10
6HR MIN TEMP:   8; 6HR MAX TEMP:  17;

WAUTOMA        CLEAR      7 -12  41 NW17G25   30.36R WCI -11
6HR MIN TEMP:   7; 6HR MAX TEMP:  16;

WISC RAPIDS    CLEAR      5 -13  43 NW15      30.38R WCI -13
6HR MIN TEMP:   5; 6HR MAX TEMP:  11;

CAMP DOUGLAS   CLEAR      6 -10  45 NW15      30.39R WCI -11
6HR MIN TEMP:   6; 6HR MAX TEMP:  15;

$$

WIZ011>013-019>022-031-037>040-048>050-130100-
NORTHEAST WISCONSIN

CITY           SKY/WX    TMP DP  RH WIND       PRES   REMARKS
ANTIGO         PTCLDY    -2 -13  59 NW15G26   30.28R WCI -22
6HR MIN TEMP:  -2; 6HR MAX TEMP:   8;

SHAWANO        CLEAR      6 -13  42 NW10G20   30.36R WCI  -9
6HR MIN TEMP:   6; 6HR MAX TEMP:  16;

OCONTO         PTCLDY     4 -11  49 NW15G21   30.34R WCI -14
6HR MIN TEMP:   4; 6HR MAX TEMP:  16;

STURGEON BAY   PTCLDY     3 -11  51 N22G29    30.33R WCI -19
6HR MIN TEMP:   3; 6HR MAX TEMP:  16;

GREEN BAY      CLEAR      5 -10  50 NW15G26   30.33R WCI -13
6HR MIN TEMP:   5; 6HR MAX TEMP:  15;

MANITOWOC      MOCLDY     8  -6  52 NW21G26   30.30R WCI -12
6HR MIN TEMP:   8; 6HR MAX TEMP:  17;

APPLETON       PTCLDY     7 -15  36 NW18G29   30.29R WCI -12
CLINTONVILLE   PTCLDY     5 -13  43 NW15G25   30.35R WCI -13
OSHKOSH        CLEAR      8  -9  45 NW15      30.31R WCI  -9
6HR MIN TEMP:   8; 6HR MAX TEMP:  15;

$$

WIZ032>034-041-042-053>061-130100-
SOUTHWEST WISCONSIN

CITY           SKY/WX    TMP DP  RH WIND       PRES   REMARKS
LA CROSSE      CLEAR      8  -9  45 NW16      30.46R WCI -10
6HR MIN TEMP:   8; 6HR MAX TEMP:  16; 6HR PCP: TRACE;

SPARTA         CLEAR      8 -10  43 NW16      30.44R WCI -10
6HR MIN TEMP:   8; 6HR MAX TEMP:  16;

VIROQUA        CLEAR      6 -10  46 N16       30.38R WCI -12
6HR MIN TEMP:   6; 6HR MAX TEMP:  15;

BOSCOBEL       CLEAR     13  -8  39 NW13G22   30.44R WCI  -2
6HR MIN TEMP:  13; 6HR MAX TEMP:  20; 6HR PCP: TRACE;

PRAIRIE DU CHI CLEAR     11  -7  44 NW14      30.46R WCI  -5
6HR MIN TEMP:  11; 6HR MAX TEMP:  17;

PLATTEVILLE    CLEAR     12  -2  53 NW12      30.38R WCI  -2
6HR MIN TEMP:  12; 6HR MAX TEMP:  18;

$$

WIZ056-057-062-063-064-067-068-130100-
SOUTH CENTRAL WISCONSIN

CITY           SKY/WX    TMP DP  RH WIND       PRES   REMARKS
REEDSBURG      CLEAR      8  -9  45 NW15G23   30.37R WCI  -9
6HR MIN TEMP:   8; 6HR MAX TEMP:  16;

BARABOO/DELLS  CLEAR      8 -11  41 NW12G23   30.35R WCI  -7
6HR MIN TEMP:   8; 6HR MAX TEMP:  17;

LONE ROCK      CLEAR     12  -8  40 NW8       30.41R WCI   0
6HR MIN TEMP:  11; 6HR MAX TEMP:  19;

MINERAL POINT  CLEAR     12  -8  40 NW8G20    30.35R WCI   1
MADISON        CLEAR     10  -7  46 NW12G21   30.33R WCI  -5
6HR MIN TEMP:  10; 6HR MAX TEMP:  18;

MIDDLETON      CLEAR     12  -5  46 NW15      30.34R WCI  -4
6HR MIN TEMP:  12; 6HR MAX TEMP:  20;

WATERTOWN      CLEAR     10  -6  48 NW18G29   30.31R WCI  -9
6HR MIN TEMP:  10; 6HR MAX TEMP:  19;

MONROE         CLEAR     14  -4  44 NW12G18   30.31R WCI   0
JANESVILLE     CLEAR     16  -6  38 N21G30    30.30R WCI  -2
$$

WIZ051-052-058>065-066-070>072-130100-
SOUTHEAST WISCONSIN

CITY           SKY/WX    TMP DP  RH WIND       PRES   REMARKS
MILWAUKEE      PTCLDY    12  -6  44 NW16G29   30.29R WCI  -5
6HR MIN TEMP:  12; 6HR MAX TEMP:  20;

WAUKESHA       CLEAR      9  -8  47 NW16G25   30.29R WCI  -9
MILWAUKEE/TIMM CLEAR     10  -8  44 NW21G26   30.30R WCI  -9
RACINE         PTCLDY    12  -7  42 NW17G29   30.30R WCI  -5
6HR MIN TEMP:  12; 6HR MAX TEMP:  21;

BURLINGTON     CLEAR     11  -6  45 NW17G24   30.29R WCI  -6
6HR MIN TEMP:  11; 6HR MAX TEMP:  20;

KENOSHA        CLEAR     13  -4  46 NW23G33   30.28R WCI  -6
6HR MIN TEMP:  13; 6HR MAX TEMP:  21;

FOND DU LAC    CLEAR      9 -10  42 N21G29    30.31R WCI -11
6HR MIN TEMP:   9; 6HR MAX TEMP:  16;

SHEBOYGAN      CLEAR      8  -9  45 N16G28    30.29R WCI -10
6HR MIN TEMP:   8; 6HR MAX TEMP:  17;

WEST BEND      CLEAR     10  -9  40 NW18G28   30.28R WCI  -8
JUNEAU         CLEAR      8  -8  48 NW20G25   30.31R WCI -11
6HR MIN TEMP:   8; 6HR MAX TEMP:  16;

$$

LSZ147-162-130100-
LAKE SUPERIOR

STATION/POSITION TIME  TEMP    WIND        PRES    WAVE
                       AIR SEA DIR/SP/G            HT/PER
                 (UTC) (F)     (DEG/KT/KT) (MB)    (FT/S)
DEVILS ISLAND    0000    4     310/ 27/ 30 1032.9R
SAXON HARBOR     2300    5                 1029.8
$$

LMZ867-665-643>646-130100-
LAKE MICHIGAN

STATION/POSITION TIME  TEMP    WIND        PRES    WAVE
                       AIR SEA DIR/SP/G            HT/PER
                 (UTC) (F)     (DEG/KT/KT) (MB)    (FT/S)
CHAMBERS ISLAND  2300    4     300/ 18/ 28 1025.1R
SISTER BAY       2320    4     360/ 28/ 36 C1F1C2F2C3F3C4F4C5F5C6F6C7F7C8M1C9M2Ca!


USA.gov is the U.S. government's official web portal to all federal, state and local government web resources and services.